Location: ČR
(50.0000°N, 15.0000°E)
Time: 11:29:18
(UTC+02:00)

A-11 Canister half - Pass Details

Date: 17 March 2026
Orbit: 1514 x 1685 km, 47.2° (Epoch: 16 April)

Event Time Altitude Azimuth Distance (km) Brightness Sun altitude
Rises 21:28:58 0° 287° (WNW) 4,944 12.6 -30.5°
Reaches altitude 10° 21:33:59 10° 266° (W) 3,948 11.6 -31.1°
Maximum altitude 21:39:02 15° 236° (SW) 3,529 11.0 -31.7°
Enters shadow 21:43:54 10° 206° (SSW) 3,883 10.9 -32.3°
Drops below altitude 10° 21:44:03 10° 205° (SSW) 3,906 - -32.3°
Sets 21:49:01 0° 184° (S) 4,861 - -32.8°
